Location: Iroquois Falls
(48.7680°N, 80.6732°W)
Time: 23:37:30
(UTC-04:00)

ISS - Visible Passes

Search period start: 25 September 2017 00:00
Search period end: 05 October 2017 00:00
Orbit: 401 x 407 km, 51.6° (Epoch: 26 September)

Date Brightness Start Highest point End Pass type
(mag) Time Alt. Az. Time Alt. Az. Time Alt. Az.
25 Sep -1.2 21:29:42 10° SW 21:30:17 14° SW 21:30:17 14° SW visible
26 Sep -2.8 20:37:44 10° SSW 20:40:35 29° SE 20:40:35 29° SE visible
27 Sep -2.1 19:46:08 10° S 19:48:27 18° SE 19:50:42 10° E visible
27 Sep -2.6 21:21:16 10° WSW 21:23:22 37° WSW 21:23:22 37° WSW visible
28 Sep -3.7 20:29:00 10° SW 20:32:12 54° SSE 20:33:19 34° E visible
28 Sep -0.7 22:05:29 10° W 22:05:58 13° W 22:05:58 13° W visible
29 Sep -3.0 19:36:55 10° SSW 19:39:55 34° SE 19:42:55 10° E visible
29 Sep -3.2 21:13:00 10° W 21:15:48 56° WNW 21:15:48 56° WNW visible
30 Sep -3.9 20:20:33 10° WSW 20:23:49 88° NNW 20:25:32 26° ENE visible
30 Sep -0.9 21:57:18 10° WNW 21:58:11 17° WNW 21:58:11 17° WNW visible
01 Oct -3.7 19:28:11 10° SW 19:31:26 63° SSE 19:34:41 10° ENE visible
01 Oct -3.2 21:04:46 10° W 21:07:50 51° NNW 21:07:50 51° NNW visible
02 Oct -3.5 20:12:14 10° W 20:15:29 61° NNW 20:17:26 22° ENE visible
02 Oct -1.0 21:49:01 10° WNW 21:50:04 19° WNW 21:50:04 19° WNW visible
03 Oct -3.2 20:56:30 10° WNW 20:59:37 48° N 20:59:37 48° N visible
04 Oct -3.2 20:03:57 10° W 20:07:09 50° N 20:09:09 20° ENE visible
04 Oct -1.1 21:40:36 10° WNW 21:41:47 20° WNW 21:41:47 20° WNW visible
